Regional Weather Roundup
Issued by NWS

Home | Current Version | Previous Version | Graphics & Text | Print | Product List | Glossary On
Versions: 1 2 3 4 5 6 7 8 9 10 11 12 13 14 15 16 17 18 19 20 21 22 23 24 25 26 27 28 29 30 31 32 33 34 35 36 37 38 39 40 41 42 43 44 45 46 47 48 49 50
000
ASUS43 KOAX 210302
RWRNE

WEATHER ROUNDUP FOR NEBRASKA
NATIONAL WEATHER SERVICE OMAHA NE
1000 PM CDT WED AUG 20 2014

NOTES: SATELLITE DATA IS BEING USED TO AUGMENT CLOUD COVER ABOVE
       12000 FEET.
       "FAIR" INDICATES FEW OR NO CLOUDS BELOW 12,000 FEET WITH NO
       SIGNIFICANT WEATHER AND/OR OBSTRUCTIONS TO VISIBILITY.

  * THESE STATIONS DO NOT REPORT WEATHER SUCH AS RAIN...SNOW OR FOG.

NEZ001>004-019>022-054>056-210400-
NEBRASKA PANHANDLE

CITY           SKY/WX    TMP DP  RH WIND       PRES   REMARKS
SCOTTSBLUFF    MOCLDY    74  55  51 CALM      29.87R
ALLIANCE       PTCLDY    75  51  43 SW10      29.86R
CHADRON        PTCLDY    77  53  43 NE5       29.80R
KIMBALL        MOCLDY    67  59  75 S5        29.94R
SIDNEY         CLOUDY    73  57  57 W8        29.93R
$$

NEZ057>060-069>072-079>082-210400-
SOUTHWEST NEBRASKA

CITY           SKY/WX    TMP DP  RH WIND       PRES   REMARKS
NORTH PLATTE   CLOUDY    70  60  70 E3        29.77F
IMPERIAL       CLOUDY    71  65  81 E8        29.83F
LEXINGTON      CLOUDY    81  69  67 W9        29.77R
MCCOOK         CLOUDY    82  58  43 E3        29.74S
OGALLALA       CLOUDY    73  57  56 S3        29.82R
$$

NEZ005>010-023>029-035>040-094-210400-
NORTH CENTRAL NEBRASKA

CITY           SKY/WX    TMP DP  RH WIND       PRES   REMARKS
VALENTINE      PTCLDY    80  64  58 S10       29.73R
AINSWORTH      PTCLDY    78  69  74 SE7       29.75R
BROKEN BOW     MOCLDY    83  70  64 SW22G30   29.79R THUNDER
O`NEILL        PTCLDY    81  74  80 SE5       29.74S
ORD            CLEAR     81  72  74 SE10      29.73R
THEDFORD       MOCLDY    76  66  71 CALM      29.78S
$$

NEZ041-046>049-061>064-073>077-083>087-210400-
SOUTH CENTRAL NEBRASKA

CITY           SKY/WX    TMP DP  RH WIND       PRES   REMARKS
GRAND ISLAND   PTCLDY    80  71  74 SE9       29.76R
AURORA         PTCLDY    79  73  82 SE8       29.77R
HASTINGS       CLOUDY    83  65  54 S10       29.76R
HEBRON         PTCLDY    82  68  63 S8        29.77R
HOLDREGE       CLOUDY    82  66  59 S7        29.77R
KEARNEY *      CLOUDY    81  70  69 SE12      29.76R
$$

NEZ011>018-030>034-042>045-210400-
NORTHEAST NEBRASKA

CITY           SKY/WX    TMP DP  RH WIND       PRES   REMARKS
NORFOLK        CLEAR     79  70  74 SE8       29.75R
ALBION         PTCLDY    77  71  82 SE5       29.76R
BLAIR          CLEAR     82  72  71 SE10      29.79R
COLUMBUS *     CLEAR     81  70  69 SE7       29.76S
FREMONT        CLEAR     83  72  69 SE9       29.77S
TEKAMAH        PTCLDY    80  74  81 SE10      29.77R
WAYNE          PTCLDY    78  74  89 SE8       29.77R
$$

NEZ050>053-065>068-078-088>093-210400-
SOUTHEAST NEBRASKA

CITY           SKY/WX    TMP DP  RH WIND       PRES   REMARKS
LINCOLN        CLEAR     86  69  56 S12       29.77R HX  90
OMAHA EPPLEY   PTCLDY    82  72  71 SE15      29.78R
BEATRICE       PTCLDY    84  71  63 S10       29.78R
FALLS CITY     CLEAR     81  73  76 SE7       29.80R
NEBRASKA CITY  PTCLDY    79  73  83 SE8       29.80R
PLATTSMOUTH    PTCLDY    80  72  76 SE7       29.79S
$$

NEZ044-045-051>053-067-210400-
OMAHA AREA

CITY           SKY/WX    TMP DP  RH WIND       PRES   REMARKS
OMAHA EPPLEY   PTCLDY    82  72  71 SE15      29.78R
BLAIR          CLEAR     82  72  71 SE10      29.79R
FREMONT        CLEAR     83  72  69 SE9       29.77S
MILLARD        CLEAR     81  73  77 SE5       29.78R
OFFUTT AFB     CLEAR     80  77  91 SE9       29.78S
PLATTSMOUTH    PTCLDY    80  72  76 SE7       29.79S
WAHOO          FAIR      79  71  78 SE7       29.77S
$$


USA.gov is the U.S. government's official web portal to all federal, state and local government web resources and services.